Location: Shepherdstown, WV
(39.4326°N, 77.8042°W)
Time: 04:24:38
(UTC-04:00)

Vanguard 1 - Pass Details

Date: 06 October 2021
Orbit: 653 x 3829 km, 34.2° (Epoch: 18 October)

Event Time Altitude Azimuth Distance (km) Brightness Sun altitude
Rises 00:53:11 0° 282° (WNW) 7,038 14.5 -55.7°
Reaches altitude 10° 00:58:34 10° 272° (W) 6,376 14.1 -55.8°
Enters shadow 01:04:33 20° 258° (WSW) 5,836 13.8 -55.8°
